W4SNA-3 Weather Reports


time (UTC)temp
F
wind
direction
speed
knots
gust
knots
rain 1hr
in
rain 24hr
in
rain mn
in
humidity
%
barometer
mb
20260510183948 77 297 0.9 3.5 0.00 0.00 0.00 37 1015.5
20260510183448 76 0 0.0 3.5 0.00 0.00 0.00 41 1015.5
20260510182948 76 306 1.7 3.5 0.00 0.00 0.00 39 1015.6
20260510182448 75 25 0.9 4.3 0.00 0.00 0.00 45 1015.7
20260510181948 74 316 0.9 4.3 0.00 0.00 0.00 42 1015.7
20260510181448 74 0 0.0 1.7 0.00 0.00 0.00 40 1015.7
20260510180948 75 0 0.0 2.6 0.00 0.00 0.00 38 1015.8
20260510180448 76 0 0.0 3.5 0.00 0.00 0.00 41 1015.8
20260510175948 76 24 0.9 3.5 0.00 0.00 0.00 39 1015.8
20260510175448 76 0 0.0 3.5 0.00 0.00 0.00 37 1015.7
20260510174949 76 342 1.7 3.5 0.00 0.00 0.00 39 1015.9
20260510174448 76 303 1.7 3.5 0.00 0.00 0.00 38 1015.9
20260510173949 76 336 0.9 4.3 0.00 0.00 0.00 40 1015.9
20260510173448 75 5 1.7 4.3 0.00 0.00 0.00 40 1015.9
20260510172948 75 9 0.9 2.6 0.00 0.00 0.00 42 1016.1
20260510172448 76 329 0.9 2.6 0.00 0.00 0.00 40 1015.2
20260510172003 76 0 0.0 3.5 0.00 0.00 0.00 41 1015.2
20260510171448 76 318 1.7 3.5 0.00 0.00 0.00 40 1015.3
20260510170949 75 0 0.0 4.3 0.00 0.00 0.00 42 1015.2
20260510170448 75 18 1.7 5.2 0.00 0.00 0.00 41 1015.4
20260510165948 74 0 0.0 5.2 0.00 0.00 0.00 48 1015.3
20260510165501 74 75 0.9 4.3 0.00 0.00 0.00 42 1015.5
20260510164948 74 0 0.0 2.6 0.00 0.00 0.00 40 1015.4
20260510164029 74 0 0.0 3.5 0.00 0.00 0.00 43 1015.6
20260510163529 74 118 0.9 3.5 0.00 0.00 0.00 44 1015.6
20260510162919 74 65 0.9 5.2 0.00 0.00 0.00 41 1015.5
20260510162419 75 275 1.7 5.2 0.00 0.00 0.00 42 1015.5
20260510161919 75 165 0.9 2.6 0.00 0.00 0.00 42 1015.6
20260510161419 76 0 0.0 2.6 0.00 0.00 0.00 40 1015.6
20260510160900 76 301 0.9 3.5 0.00 0.00 0.00 40 1015.6
20260510160400 75 0 0.0 2.6 0.00 0.00 0.00 41 1015.4
20260510155900 75 0 0.0 2.6 0.00 0.00 0.00 43 1015.4
20260510155400 75 0 0.0 2.6 0.00 0.00 0.00 42 1015.4
20260510154900 75 0 0.0 1.7 0.00 0.00 0.00 43 1015.4
20260510154400 75 0 0.0 3.5 0.00 0.00 0.00 43 1015.5
20260510153900 75 0 0.0 3.5 0.00 0.00 0.00 42 1015.5
20260510153401 75 0 0.0 4.3 0.00 0.00 0.00 45 1015.5
20260510152900 74 2 0.9 5.2 0.00 0.00 0.00 44 1015.7
20260510152400 74 64 0.9 6.1 0.00 0.00 0.00 45 1015.8
20260510151924 74 28 1.7 6.1 0.00 0.00 0.00 45 1015.8
20260510151400 73 320 1.7 3.5 0.00 0.00 0.00 45 1015.9
20260510150900 74 345 1.7 5.2 0.00 0.00 0.00 45 1016.0
20260510150400 74 17 1.7 5.2 0.00 0.00 0.00 45 1016.1
20260510145408 73 283 0.9 7.0 0.00 0.00 0.00 45 1015.9
20260510144922 73 239 0.9 4.3 0.00 0.00 0.00 48 1015.9
20260510144343 73 5 0.9 3.5 0.00 0.00 0.00 47 1015.8
20260510143843 73 0 0.0 4.3 0.00 0.00 0.00 47 1015.6
20260510143343 73 306 1.7 4.3 0.00 0.00 0.00 48 1015.6
20260510142843 73 319 1.7 3.5 0.00 0.00 0.00 46 1015.5
20260510142348 73 302 1.7 4.3 0.00 0.00 0.00 47 1015.6
20260510141859 73 34 0.9 4.3 0.00 0.00 0.00 49 1015.7
20260510141343 72 331 0.9 3.5 0.00 0.00 0.00 48 1015.7
20260510140843 72 350 0.9 3.5 0.00 0.00 0.00 49 1015.7
20260510140344 72 29 0.9 3.5 0.00 0.00 0.00 49 1015.7
20260510135844 72 325 0.9 4.3 0.00 0.00 0.00 50 1015.7
20260510135343 71 340 1.7 4.3 0.00 0.00 0.00 50 1015.7
20260510134843 71 355 0.9 4.3 0.00 0.00 0.00 53 1015.8
20260510134346 70 303 0.9 4.3 0.00 0.00 0.00 52 1015.7
20260510133452 69 310 1.7 4.3 0.00 0.00 0.00 54 1015.6
20260510132941 69 318 1.7 4.3 0.00 0.00 0.00 53 1015.6
20260510132441 68 311 1.7 3.5 0.00 0.00 0.00 54 1015.7
20260510131945 68 313 1.7 3.5 0.00 0.00 0.00 55 1015.7
20260510131503 68 307 1.7 3.5 0.00 0.00 0.00 55 1015.6
20260510130948 67 306 1.7 3.5 0.00 0.00 0.00 59 1015.5
20260510130505 67 297 1.7 3.5 0.00 0.00 0.00 59 1015.6
20260510125948 66 317 1.7 4.3 0.00 0.00 0.00 59 1015.6
20260510125441 65 319 1.7 4.3 0.00 0.00 0.00 61 1015.3
20260510124944 64 315 1.7 4.3 0.00 0.00 0.00 61 1015.4
20260510124441 64 313 1.7 3.5 0.00 0.00 0.00 62 1015.3
20260510123941 63 310 1.7 3.5 0.00 0.00 0.00 64 1015.3
20260510123441 63 310 1.7 4.3 0.00 0.00 0.00 64 1015.1
20260510122942 62 308 1.7 4.3 0.00 0.00 0.00 66 1014.9
20260510122440 61 313 1.7 4.3 0.00 0.00 0.00 66 1015.0
20260510121943 61 305 1.7 5.2 0.00 0.00 0.00 67 1014.8
20260510121441 60 312 2.6 5.2 0.00 0.00 0.00 68 1014.7
20260510120617 59 310 2.6 6.1 0.00 0.00 0.00 69 1014.7
20260510120114 59 309 2.6 6.1 0.00 0.00 0.00 70 1014.7
20260510115614 58 314 2.6 5.2 0.00 0.00 0.00 71 1014.6
20260510115114 58 309 2.6 5.2 0.00 0.00 0.00 72 1014.5
20260510114409 57 304 2.6 5.2 0.00 0.00 0.00 74 1014.4
20260510113908 56 308 2.6 5.2 0.00 0.00 0.00 75 1014.3
20260510113427 55 313 2.6 5.2 0.00 0.00 0.00 77 1014.2
20260510112809 55 315 2.6 5.2 0.00 0.00 0.00 78 1014.1
20260510112309 54 309 2.6 5.2 0.00 0.00 0.00 80 1014.0
20260510111813 53 312 2.6 5.2 0.00 0.00 0.00 81 1013.9
20260510111309 53 319 3.5 5.2 0.00 0.00 0.00 82 1013.9
20260510110810 52 306 2.6 5.2 0.00 0.00 0.00 82 1013.7
20260510110309 52 309 2.6 5.2 0.00 0.00 0.00 82 1013.7
20260510105322 52 306 2.6 5.2 0.00 0.00 0.00 83 1013.5
20260510104821 52 312 2.6 6.1 0.00 0.00 0.00 83 1013.5
20260510104321 52 310 3.5 6.1 0.00 0.00 0.00 83 1013.3
20260510103821 52 308 2.6 5.2 0.00 0.00 0.00 84 1013.3
20260510102830 52 312 3.5 6.1 0.00 0.00 0.00 85 1013.3
20260510102335 52 310 3.5 6.1 0.00 0.00 0.00 85 1013.2
20260510101826 52 310 3.5 5.2 0.00 0.00 0.00 84 1013.2
20260510101334 52 309 3.5 5.2 0.00 0.00 0.00 84 1013.1
20260510100826 52 308 3.5 5.2 0.00 0.00 0.00 84 1013.1
20260510100326 52 311 3.5 6.1 0.00 0.00 0.00 84 1013.0
20260510095830 52 308 3.5 6.1 0.00 0.00 0.00 84 1013.0
20260510095326 52 307 3.5 5.2 0.00 0.00 0.00 84 1013.0
20260510094826 53 305 3.5 5.2 0.00 0.00 0.00 84 1012.9
20260510094327 53 307 3.5 5.2 0.00 0.00 0.00 84 1013.0
20260510093648 53 306 3.5 6.1 0.00 0.00 0.00 84 1012.9
20260510093144 53 305 3.5 6.1 0.00 0.00 0.00 84 1012.8
20260510092642 53 313 3.5 6.1 0.00 0.00 0.00 84 1012.9
20260510092151 53 306 3.5 6.1 0.00 0.00 0.00 84 1012.7
20260510091642 53 308 2.6 5.2 0.00 0.00 0.00 84 1012.7
20260510091150 53 312 3.5 5.2 0.00 0.00 0.00 84 1012.6
20260510090647 53 305 3.5 5.2 0.00 0.00 0.00 84 1012.7
20260510090143 53 307 3.5 5.2 0.00 0.00 0.00 84 1012.6
20260510085217 53 308 3.5 5.2 0.00 0.00 0.00 83 1012.6
20260510084721 53 306 2.6 5.2 0.00 0.00 0.00 83 1012.5
20260510084217 54 309 2.6 5.2 0.00 0.00 0.00 83 1012.5
20260510083742 53 309 2.6 5.2 0.00 0.00 0.00 83 1012.4
20260510083218 53 303 2.6 5.2 0.00 0.00 0.00 83 1012.2
20260510082717 53 310 2.6 5.2 0.00 0.00 0.00 83 1012.2
20260510082220 53 303 2.6 5.2 0.00 0.00 0.00 83 1012.0
20260510081717 53 305 2.6 6.1 0.00 0.00 0.00 83 1012.0
20260510081219 53 313 2.6 6.1 0.00 0.00 0.00 83 1012.0
20260510080717 53 313 2.6 5.2 0.00 0.00 0.00 83 1012.0
20260510080219 53 311 2.6 5.2 0.00 0.00 0.00 83 1012.0
20260510075718 53 306 2.6 5.2 0.00 0.00 0.00 83 1012.0
20260510075217 53 302 2.6 5.2 0.00 0.00 0.00 83 1012.1
20260510074225 53 310 2.6 4.3 0.00 0.00 0.00 83 1012.2
20260510073717 53 308 2.6 4.3 0.00 0.00 0.00 82 1012.3
20260510073230 53 305 2.6 4.3 0.00 0.00 0.00 82 1011.4
20260510072718 53 304 2.6 4.3 0.00 0.00 0.00 82 1011.3
20260510072220 53 310 1.7 4.3 0.00 0.00 0.00 82 1011.2
20260510071717 53 308 2.6 4.3 0.00 0.00 0.00 82 1011.2
20260510070735 53 303 2.6 4.3 0.00 0.00 0.00 82 1011.2
20260510070219 53 306 2.6 4.3 0.00 0.00 0.00 82 1011.3
20260510065717 53 301 2.6 4.3 0.00 0.00 0.00 82 1011.4
20260510065253 53 305 2.6 4.3 0.00 0.00 0.00 82 1011.4
20260510064717 53 303 2.6 4.3 0.00 0.00 0.00 82 1011.4
20260510064219 53 307 2.6 5.2 0.00 0.00 0.00 82 1011.5
20260510063723 53 307 2.6 5.2 0.00 0.00 0.00 82 1011.5
20260510063218 53 310 2.6 4.3 0.00 0.00 0.00 82 1011.6
20260510062718 52 315 1.7 3.5 0.00 0.00 0.00 83 1011.6
20260510062218 52 320 1.7 3.5 0.00 0.00 0.00 82 1011.6
20260510061717 52 328 1.7 3.5 0.00 0.00 0.00 82 1011.8
20260510061217 52 82 0.9 2.6 0.00 0.00 0.00 83 1011.9
20260510060717 52 86 0.9 2.6 0.00 0.00 0.00 82 1011.8
20260510060218 52 86 0.9 2.6 0.00 0.00 0.00 82 1011.8
20260510055717 52 0 0.0 2.6 0.00 0.00 0.00 82 1011.8
20260510054941 52 87 0.9 2.6 0.00 0.00 0.00 82 1011.8
20260510054441 52 0 0.0 0.0 0.00 0.00 0.00 82 1011.9
20260510053941 52 0 0.0 0.0 0.00 0.00 0.00 82 1011.9
20260510053441 52 0 0.0 0.0 0.00 0.00 0.00 81 1012.0
20260510052956 52 0 0.0 0.0 0.00 0.00 0.00 81 1012.0
20260510052441 53 0 0.0 0.0 0.00 0.00 0.00 81 1012.1
20260510051941 53 0 0.0 0.0 0.00 0.00 0.00 81 1012.1
20260510051442 53 0 0.0 0.0 0.00 0.00 0.00 80 1012.3
20260510050941 53 0 0.0 0.0 0.00 0.00 0.00 80 1012.3
20260510050509 53 0 0.0 0.0 0.00 0.00 0.00 80 1012.3
20260510045958 53 0 0.0 1.7 0.00 0.00 0.00 80 1012.1
20260510045441 53 0 0.0 1.7 0.00 0.00 0.00 79 1012.1
20260510044942 54 0 0.0 0.9 0.00 0.00 0.00 78 1011.9
20260510043950 54 0 0.0 1.7 0.00 0.00 0.00 78 1011.9
20260510043511 54 0 0.0 1.7 0.00 0.00 0.00 78 1011.9
20260510042954 54 0 0.0 1.7 0.00 0.00 0.00 78 1012.0
20260510042442 54 0 0.0 2.6 0.00 0.00 0.00 77 1011.8
20260510041941 54 0 0.0 2.6 0.00 0.00 0.00 76 1012.0
20260510041440 55 87 0.9 2.6 0.00 0.00 0.00 76 1012.0
20260510040940 55 0 0.0 1.7 0.00 0.00 0.00 75 1012.0
20260510040508 55 0 0.0 1.7 0.00 0.00 0.00 75 1012.0
20260510035723 55 0 0.0 1.7 0.00 0.00 0.00 74 1012.1
20260510035204 56 0 0.0 1.7 0.00 0.00 0.00 74 1012.1
20260510034704 56 0 0.0 0.9 0.00 0.00 0.00 74 1012.1
20260510034247 56 0 0.0 2.6 0.00 0.00 0.00 73 1012.1
20260510034204 56 0 0.0 2.6 0.00 0.00 0.00 73 1012.1
20260510033710 56 0 0.0 2.6 0.00 0.00 0.00 73 1012.1
20260510033204 56 0 0.0 1.7 0.00 0.00 0.00 73 1012.1
20260510032722 56 0 0.0 2.6 0.00 0.00 0.00 73 1012.1
20260510032204 56 0 0.0 2.6 0.00 0.00 0.00 73 1012.0
20260510031704 55 0 0.0 0.9 0.00 0.00 0.00 74 1012.0
20260510031216 55 0 0.0 0.0 0.00 0.00 0.00 74 1012.1
20260510030722 55 0 0.0 0.0 0.00 0.00 0.00 74 1012.0
20260510030204 55 0 0.0 0.0 0.00 0.00 0.00 74 1012.0
20260510025704 55 0 0.0 0.0 0.00 0.00 0.00 74 1011.9
20260510025219 55 0 0.0 0.0 0.00 0.00 0.00 74 1011.7
20260510024704 55 0 0.0 0.0 0.00 0.00 0.00 74 1011.8
20260510024204 55 0 0.0 0.0 0.00 0.00 0.00 74 1011.8
20260510023704 55 0 0.0 0.0 0.00 0.00 0.00 74 1011.7
20260510023204 55 0 0.0 0.0 0.00 0.00 0.00 73 1011.6
20260510022721 55 0 0.0 0.0 0.00 0.00 0.00 73 1011.5
20260510021742 55 0 0.0 0.0 0.00 0.00 0.00 73 1011.7
20260510021241 56 0 0.0 0.0 0.00 0.00 0.00 73 1011.7
20260510020741 56 0 0.0 0.0 0.00 0.00 0.00 72 1011.7
20260510020248 56 0 0.0 0.0 0.00 0.00 0.00 72 1011.6
20260510015742 56 0 0.0 0.0 0.00 0.00 0.00 71 1011.4
20260510015251 56 0 0.0 0.0 0.00 0.00 0.00 70 1011.4
20260510014741 56 0 0.0 0.0 0.00 0.00 0.00 70 1011.4
20260510014243 56 0 0.0 0.0 0.00 0.00 0.00 70 1011.4
20260510013742 56 0 0.0 0.0 0.00 0.00 0.00 70 1011.2
20260510013241 56 0 0.0 0.0 0.00 0.00 0.00 70 1010.9
20260510012741 56 0 0.0 0.9 0.00 0.00 0.00 70 1010.9
20260510012253 57 0 0.0 0.9 0.00 0.00 0.00 70 1010.8
20260510011742 57 0 0.0 0.0 0.00 0.00 0.00 70 1010.7
20260510011243 57 0 0.0 0.0 0.00 0.00 0.00 69 1010.7
20260510010741 57 0 0.0 0.9 0.00 0.00 0.00 68 1010.5
20260510010244 57 0 0.0 0.9 0.00 0.00 0.00 68 1010.5
20260510005741 58 0 0.0 0.0 0.00 0.00 0.00 67 1010.4
20260510005256 58 0 0.0 0.0 0.00 0.00 0.00 67 1010.1
20260510004741 58 0 0.0 0.0 0.00 0.00 0.00 67 1010.0
20260510004243 58 0 0.0 0.9 0.00 0.00 0.00 67 1010.0
20260510003741 59 0 0.0 1.7 0.00 0.00 0.00 67 1009.9
20260510003241 59 0 0.0 1.7 0.00 0.00 0.00 66 1009.8
20260510002741 59 0 0.0 0.9 0.00 0.00 0.00 67 1009.6
20260510002248 60 0 0.0 1.7 0.00 0.00 0.00 67 1009.7
20260510001743 60 0 0.0 1.7 0.00 0.00 0.00 66 1009.7
20260510001241 60 0 0.0 2.6 0.00 0.00 0.00 66 1009.7
20260510000741 61 292 0.9 3.5 0.00 0.00 0.00 65 1009.7
20260510000244 61 292 0.9 3.5 0.00 0.00 0.00 64 1009.6
20260509235741 61 292 0.9 2.6 0.00 0.00 0.00 63 1009.7
20260509235258 61 292 0.9 2.6 0.00 0.00 0.00 63 1009.7
20260509234743 62 291 0.9 2.6 0.00 0.00 0.00 62 1009.7
20260509234243 62 292 0.9 3.5 0.00 0.00 0.00 62 1009.6
20260509233741 62 0 0.0 3.5 0.00 0.00 0.00 62 1009.8
20260509233241 62 293 0.9 2.6 0.00 0.00 0.00 60 1009.6
20260509232748 62 0 0.0 2.6 0.00 0.00 0.00 60 1009.5
20260509232243 63 0 0.0 3.5 0.00 0.00 0.00 58 1009.6
20260509231741 63 294 0.9 3.5 0.00 0.00 0.00 59 1009.3
20260509231242 63 277 0.9 4.3 0.00 0.00 0.00 59 1009.3
20260509230741 63 264 0.9 4.3 0.00 0.00 0.00 58 1009.2
20260509225840 64 317 0.9 2.6 0.00 0.00 0.00 58 1009.2
20260509225341 64 316 0.9 2.6 0.00 0.00 0.00 58 1009.1
20260509224841 64 316 0.9 3.5 0.00 0.00 0.00 58 1009.0
20260509224340 64 320 1.7 4.3 0.00 0.00 0.00 56 1009.0
20260509223841 65 292 1.7 4.3 0.00 0.00 0.00 55 1009.0
20260509223344 65 0 0.0 2.6 0.00 0.00 0.00 58 1009.0
20260509222841 65 0 0.0 7.0 0.00 0.00 0.00 58 1009.2
20260509222341 65 276 0.9 7.0 0.00 0.00 0.00 56 1009.0
20260509221845 65 351 0.9 7.0 0.00 0.00 0.00 56 1009.0
20260509221341 66 34 0.9 3.5 0.00 0.00 0.00 57 1009.0
20260509220840 66 334 0.9 3.5 0.00 0.00 0.00 57 1009.1
20260509220343 66 0 0.0 4.3 0.00 0.00 0.00 60 1009.2
20260509215840 66 0 0.0 4.3 0.00 0.00 0.00 60 1009.2
20260509215340 66 0 0.0 1.7 0.00 0.00 0.00 64 1009.1
20260509214841 66 0 0.0 1.7 0.00 0.00 0.00 65 1009.0
20260509214340 66 0 0.0 0.9 0.00 0.00 0.00 66 1009.0
20260509213841 66 0 0.0 0.0 0.00 0.00 0.00 66 1008.9
20260509213340 66 0 0.0 0.0 0.00 0.00 0.00 66 1008.9
20260509212840 66 0 0.0 0.0 0.00 0.00 0.00 67 1009.0
20260509212342 66 0 0.0 0.0 0.00 0.00 0.00 65 1008.7
20260509211841 67 0 0.0 0.0 0.00 0.00 0.00 64 1008.8
20260509211340 67 0 0.0 0.0 0.00 0.00 0.00 63 1008.7
20260509210840 67 0 0.0 0.0 0.00 0.00 0.00 63 1008.7
20260509210243 68 0 0.0 0.0 0.00 0.00 0.00 62 1008.7
20260509205740 68 0 0.0 0.0 0.00 0.00 0.00 61 1008.5
20260509205240 68 0 0.0 0.9 0.00 0.00 0.00 63 1008.6
20260509204740 68 0 0.0 1.7 0.00 0.00 0.00 61 1008.5
20260509204249 68 0 0.0 1.7 0.00 0.00 0.00 60 1008.6
20260509203744 68 0 0.0 1.7 0.00 0.00 0.00 62 1008.5
20260509203240 68 0 0.0 2.6 0.00 0.00 0.00 63 1008.5
20260509202747 67 0 0.0 2.6 0.00 0.00 0.00 65 1008.5
20260509202251 67 0 0.0 2.6 0.00 0.00 0.00 65 1008.7
20260509201341 66 0 0.0 1.7 0.00 0.00 0.00 66 1008.6
20260509200853 66 0 0.0 0.9 0.00 0.00 0.00 67 1008.6
20260509200344 66 0 0.0 1.7 0.00 0.00 0.00 66 1008.7
20260509195841 66 0 0.0 1.7 0.00 0.00 0.00 65 1008.7
20260509195342 66 0 0.0 2.6 0.00 0.00 0.00 64 1008.9
20260509194842 67 0 0.0 2.6 0.00 0.00 0.00 62 1008.8
20260509194341 67 0 0.0 2.6 0.00 0.00 0.00 62 1008.9
20260509193842 67 0 0.0 1.7 0.00 0.00 0.00 63 1008.9
20260509193341 68 0 0.0 1.7 0.00 0.00 0.00 61 1008.9
20260509192842 68 0 0.0 3.5 0.00 0.00 0.00 62 1008.9
20260509192342 69 0 0.0 3.5 0.00 0.00 0.00 61 1008.8
20260509191841 69 0 0.0 7.0 0.00 0.00 0.00 61 1008.9
20260509191341 69 249 0.9 7.0 0.00 0.00 0.00 62 1008.8
20260509190851 69 0 0.0 2.6 0.00 0.00 0.00 63 1008.7
20260509190341 68 0 0.0 2.6 0.00 0.00 0.00 61 1008.8
20260509185846 68 0 0.0 2.6 0.00 0.00 0.00 62 1008.8
20260509185341 67 0 0.0 1.7 0.00 0.00 0.00 67 1008.8
20260509184841 66 0 0.0 1.7 0.00 0.00 0.00 67 1008.9
20260509184402 67 0 0.0 1.7 0.00 0.00 0.00 65 1008.9